| time (UTC) | temp F | wind direction | speed knots | gust knots | rain 1hr in | rain 24hr in | rain mn in | humidity % | barometer mb |
| 20260505200539 | 88 | 286 | 1.7 | 2.6 | 0.00 | 0.00 | 0.00 | 61 | 1004.8 |
| 20260505200036 | 88 | 246 | 2.6 | 5.2 | 0.00 | 0.00 | 0.00 | 59 | 1004.9 |
| 20260505195532 | 88 | 240 | 0.0 | 6.1 | 0.00 | 0.00 | 0.00 | 61 | 1004.7 |
| 20260505195030 | 88 | 285 | 0.0 | 4.3 | 0.00 | 0.00 | 0.00 | 62 | 1004.5 |
| 20260505194527 | 87 | 294 | 0.9 | 3.5 | 0.00 | 0.00 | 0.00 | 63 | 1004.8 |
| 20260505194022 | 87 | 270 | 0.0 | 7.0 | 0.00 | 0.00 | 0.00 | 62 | 1004.8 |
| 20260505193520 | 87 | 306 | 0.9 | 4.3 | 0.00 | 0.00 | 0.00 | 62 | 1004.7 |
| 20260505193017 | 87 | 295 | 0.0 | 5.2 | 0.00 | 0.00 | 0.00 | 63 | 1004.9 |
| 20260505192516 | 87 | 270 | 0.0 | 5.2 | 0.00 | 0.00 | 0.00 | 64 | 1005.0 |
| 20260505192013 | 87 | 236 | 1.7 | 2.6 | 0.00 | 0.00 | 0.00 | 64 | 1004.8 |
| 20260505191511 | 86 | 270 | 2.6 | 7.0 | 0.00 | 0.00 | 0.00 | 64 | 1005.0 |
| 20260505191008 | 86 | 253 | 1.7 | 4.3 | 0.00 | 0.00 | 0.00 | 66 | 1004.8 |
| 20260505190503 | 85 | 262 | 0.9 | 2.6 | 0.00 | 0.00 | 0.00 | 66 | 1004.6 |
| 20260505185958 | 85 | 201 | 1.7 | 2.6 | 0.00 | 0.00 | 0.00 | 66 | 1004.7 |
| 20260505185456 | 85 | 255 | 4.3 | 6.1 | 0.00 | 0.00 | 0.00 | 67 | 1004.8 |
| 20260505184952 | 85 | 240 | 0.0 | 6.1 | 0.00 | 0.00 | 0.00 | 67 | 1004.8 |
| 20260505184449 | 85 | 270 | 0.0 | 1.7 | 0.00 | 0.00 | 0.00 | 68 | 1004.8 |
| 20260505183945 | 84 | 265 | 1.7 | 4.3 | 0.00 | 0.00 | 0.00 | 68 | 1005.0 |
| 20260505183442 | 84 | 270 | 0.0 | 6.1 | 0.00 | 0.00 | 0.00 | 69 | 1005.0 |
| 20260505182939 | 84 | 262 | 2.6 | 4.3 | 0.00 | 0.00 | 0.00 | 69 | 1005.3 |
| 20260505182436 | 83 | 216 | 2.6 | 4.3 | 0.00 | 0.00 | 0.00 | 69 | 1005.1 |
| 20260505181932 | 84 | 201 | 1.7 | 7.0 | 0.00 | 0.00 | 0.00 | 69 | 1005.0 |
| 20260505181430 | 83 | 277 | 2.6 | 2.6 | 0.00 | 0.00 | 0.00 | 69 | 1005.0 |
| 20260505180927 | 83 | 262 | 2.6 | 7.8 | 0.00 | 0.00 | 0.00 | 68 | 1005.3 |
| 20260505180423 | 84 | 257 | 3.5 | 11.3 | 0.00 | 0.00 | 0.00 | 68 | 1005.0 |
| 20260505175919 | 84 | 270 | 1.7 | 5.2 | 0.00 | 0.00 | 0.00 | 69 | 1005.2 |
| 20260505175416 | 84 | 217 | 0.0 | 2.6 | 0.00 | 0.00 | 0.00 | 69 | 1005.1 |
| 20260505174912 | 83 | 270 | 4.3 | 8.7 | 0.00 | 0.00 | 0.00 | 68 | 1005.0 |
| 20260505174410 | 83 | 278 | 0.9 | 4.3 | 0.00 | 0.00 | 0.00 | 68 | 1004.9 |
| 20260505173906 | 84 | 225 | 1.7 | 3.5 | 0.00 | 0.00 | 0.00 | 67 | 1005.2 |
| 20260505173402 | 83 | 268 | 5.2 | 7.0 | 0.00 | 0.00 | 0.00 | 69 | 1005.0 |
| 20260505172859 | 83 | 194 | 0.0 | 7.8 | 0.00 | 0.00 | 0.00 | 71 | 1005.0 |
| 20260505172357 | 82 | 270 | 0.9 | 6.1 | 0.00 | 0.00 | 0.00 | 70 | 1005.0 |
| 20260505171857 | 83 | 262 | 2.6 | 7.8 | 0.00 | 0.00 | 0.00 | 70 | 1005.0 |
| 20260505171353 | 84 | 277 | 0.9 | 2.6 | 0.00 | 0.00 | 0.00 | 70 | 1005.2 |
| 20260505170850 | 83 | 270 | 0.0 | 2.6 | 0.00 | 0.00 | 0.00 | 72 | 1005.0 |
| 20260505170347 | 83 | 233 | 1.7 | 3.5 | 0.00 | 0.00 | 0.00 | 72 | 1005.3 |
| 20260505165842 | 82 | 276 | 0.0 | 4.3 | 0.00 | 0.00 | 0.00 | 72 | 1005.0 |
| 20260505165338 | 81 | 263 | 2.6 | 5.2 | 0.00 | 0.00 | 0.00 | 72 | 1005.3 |
| 20260505164834 | 81 | 270 | 2.6 | 5.2 | 0.00 | 0.00 | 0.00 | 72 | 1005.2 |
| 20260505164331 | 81 | 258 | 2.6 | 2.6 | 0.00 | 0.00 | 0.00 | 73 | 1005.0 |
| 20260505163829 | 81 | 265 | 1.7 | 4.3 | 0.00 | 0.00 | 0.00 | 73 | 1005.1 |
| 20260505163328 | 80 | 109 | 1.7 | 6.1 | 0.00 | 0.00 | 0.00 | 73 | 1004.9 |
| 20260505162826 | 80 | 243 | 4.3 | 5.2 | 0.00 | 0.00 | 0.00 | 74 | 1005.0 |
| 20260505162322 | 80 | 210 | 2.6 | 6.1 | 0.00 | 0.00 | 0.00 | 74 | 1005.0 |
| 20260505161819 | 81 | 187 | 1.7 | 3.5 | 0.00 | 0.00 | 0.00 | 75 | 1005.1 |
| 20260505161316 | 80 | 83 | 0.9 | 4.3 | 0.00 | 0.00 | 0.00 | 76 | 1004.9 |
| 20260505160814 | 79 | 243 | 0.0 | 4.3 | 0.00 | 0.00 | 0.00 | 77 | 1005.2 |
| 20260505160312 | 79 | 293 | 1.7 | 3.5 | 0.00 | 0.00 | 0.00 | 77 | 1004.9 |
| 20260505153250 | 77 | 273 | 2.6 | 7.8 | 0.00 | 0.00 | 0.00 | 79 | 1005.0 |
| 20260505152747 | 77 | 270 | 1.7 | 3.5 | 0.00 | 0.00 | 0.00 | 79 | 1004.9 |
| 20260505152244 | 77 | 262 | 2.6 | 3.5 | 0.00 | 0.00 | 0.00 | 79 | 1004.9 |
| 20260505151744 | 77 | 246 | 1.7 | 4.3 | 0.00 | 0.00 | 0.00 | 79 | 1005.0 |
| 20260505151242 | 77 | 263 | 0.9 | 3.5 | 0.00 | 0.00 | 0.00 | 80 | 1004.8 |
| 20260505150738 | 77 | 198 | 3.5 | 3.5 | 0.00 | 0.00 | 0.00 | 80 | 1004.9 |
| 20260505150236 | 76 | 240 | 1.7 | 3.5 | 0.00 | 0.00 | 0.00 | 81 | 1005.1 |
| 20260505140206 | 73 | 236 | 2.6 | 5.2 | 0.00 | 0.00 | 0.00 | 85 | 1004.6 |
| 20260505130130 | 71 | 254 | 4.3 | 4.3 | 0.00 | 0.00 | 0.00 | 88 | 1004.5 |
| 20260505124619 | 71 | 198 | 0.9 | 3.5 | 0.00 | 0.00 | 0.00 | 88 | 1004.3 |
| 20260505124115 | 71 | 202 | 2.6 | 8.7 | 0.00 | 0.00 | 0.00 | 88 | 1004.4 |
| 20260505123612 | 71 | 175 | 0.0 | 3.5 | 0.00 | 0.00 | 0.00 | 88 | 1004.5 |
| 20260505123108 | 71 | 279 | 0.0 | 1.7 | 0.00 | 0.00 | 0.00 | 88 | 1004.1 |
| 20260505122605 | 71 | 168 | 1.7 | 4.3 | 0.00 | 0.00 | 0.00 | 88 | 1004.2 |
| 20260505122102 | 71 | 101 | 1.7 | 4.3 | 0.00 | 0.00 | 0.00 | 88 | 1004.1 |
| 20260505121559 | 71 | 219 | 2.6 | 3.5 | 0.00 | 0.00 | 0.00 | 88 | 1004.1 |
| 20260505121056 | 71 | 223 | 4.3 | 4.3 | 0.00 | 0.00 | 0.00 | 89 | 1004.1 |
| 20260505120552 | 71 | 83 | 0.9 | 2.6 | 0.00 | 0.00 | 0.00 | 89 | 1003.9 |
| 20260505120048 | 71 | 255 | 2.6 | 5.2 | 0.00 | 0.00 | 0.00 | 89 | 1004.0 |
| 20260505115542 | 71 | 259 | 1.7 | 5.2 | 0.00 | 0.00 | 0.00 | 89 | 1004.0 |
| 20260505115040 | 71 | 255 | 0.9 | 5.2 | 0.00 | 0.00 | 0.00 | 89 | 1004.2 |
| 20260505114537 | 71 | 191 | 0.0 | 4.3 | 0.00 | 0.00 | 0.00 | 88 | 1003.9 |
| 20260505114033 | 71 | 249 | 2.6 | 3.5 | 0.00 | 0.00 | 0.00 | 89 | 1003.9 |
| 20260505113530 | 71 | 180 | 0.9 | 4.3 | 0.00 | 0.00 | 0.00 | 88 | 1004.0 |
| 20260505113026 | 71 | 186 | 0.0 | 2.6 | 0.00 | 0.00 | 0.00 | 89 | 1003.9 |
| 20260505112522 | 71 | 206 | 0.0 | 2.6 | 0.00 | 0.00 | 0.00 | 89 | 1003.9 |
| 20260505112021 | 71 | 262 | 0.0 | 4.3 | 0.00 | 0.00 | 0.00 | 89 | 1003.8 |
| 20260505111514 | 71 | 270 | 2.6 | 4.3 | 0.00 | 0.00 | 0.00 | 89 | 1003.8 |
| 20260505111010 | 71 | 188 | 0.0 | 2.6 | 0.00 | 0.00 | 0.00 | 89 | 1003.8 |
| 20260505110507 | 71 | 257 | 0.0 | 3.5 | 0.00 | 0.00 | 0.00 | 88 | 1004.2 |
| 20260505101940 | 71 | 217 | 1.7 | 5.2 | 0.00 | 0.00 | 0.00 | 86 | 1003.7 |
| 20260505101438 | 71 | 264 | 0.9 | 11.3 | 0.00 | 0.00 | 0.00 | 86 | 1003.9 |
| 20260505100934 | 71 | 278 | 1.7 | 4.3 | 0.00 | 0.00 | 0.00 | 86 | 1004.0 |
| 20260505100431 | 71 | 239 | 2.6 | 4.3 | 0.00 | 0.00 | 0.00 | 86 | 1004.2 |
| 20260505095927 | 71 | 261 | 2.6 | 2.6 | 0.00 | 0.00 | 0.00 | 86 | 1004.1 |
| 20260505095424 | 71 | 215 | 0.0 | 3.5 | 0.00 | 0.00 | 0.00 | 86 | 1004.3 |
| 20260505094920 | 72 | 270 | 0.9 | 4.3 | 0.00 | 0.00 | 0.00 | 86 | 1004.1 |
| 20260505094418 | 72 | 270 | 0.0 | 1.7 | 0.00 | 0.00 | 0.00 | 86 | 1004.1 |
| 20260505093913 | 72 | 180 | 0.0 | 4.3 | 0.00 | 0.00 | 0.00 | 85 | 1003.8 |
| 20260505093410 | 72 | 180 | 0.0 | 4.3 | 0.00 | 0.00 | 0.00 | 85 | 1004.0 |
| 20260505092908 | 72 | 180 | 0.0 | 2.6 | 0.00 | 0.00 | 0.00 | 85 | 1003.9 |
| 20260505092406 | 72 | 196 | 1.7 | 6.1 | 0.00 | 0.00 | 0.00 | 85 | 1004.0 |
| 20260505091903 | 72 | 261 | 1.7 | 5.2 | 0.00 | 0.00 | 0.00 | 85 | 1004.0 |
| 20260505091400 | 72 | 254 | 2.6 | 2.6 | 0.00 | 0.00 | 0.00 | 85 | 1004.2 |
| 20260505090858 | 72 | 166 | 1.7 | 2.6 | 0.00 | 0.00 | 0.00 | 85 | 1004.2 |
| 20260505090356 | 72 | 233 | 2.6 | 6.1 | 0.00 | 0.00 | 0.00 | 85 | 1004.3 |
| 20260505085853 | 72 | 253 | 1.7 | 5.2 | 0.00 | 0.00 | 0.00 | 85 | 1004.5 |
| 20260505085351 | 72 | 254 | 1.7 | 4.3 | 0.00 | 0.00 | 0.00 | 85 | 1004.3 |
| 20260505084849 | 72 | 174 | 0.9 | 2.6 | 0.00 | 0.00 | 0.00 | 85 | 1004.3 |
| 20260505084347 | 72 | 188 | 0.0 | 4.3 | 0.00 | 0.00 | 0.00 | 84 | 1004.4 |
| 20260505083844 | 72 | 241 | 1.7 | 2.6 | 0.00 | 0.00 | 0.00 | 84 | 1004.5 |
| 20260505083342 | 72 | 270 | 1.7 | 4.3 | 0.00 | 0.00 | 0.00 | 84 | 1004.7 |
| 20260505082838 | 72 | 254 | 0.9 | 1.7 | 0.00 | 0.00 | 0.00 | 84 | 1004.4 |
| 20260505082334 | 72 | 265 | 3.5 | 5.2 | 0.00 | 0.00 | 0.00 | 83 | 1004.3 |
| 20260505081831 | 72 | 243 | 2.6 | 4.3 | 0.00 | 0.00 | 0.00 | 83 | 1004.4 |
| 20260505081327 | 72 | 97 | 0.0 | 2.6 | 0.00 | 0.00 | 0.00 | 83 | 1004.3 |
| 20260505080824 | 72 | 246 | 0.0 | 1.7 | 0.00 | 0.00 | 0.00 | 83 | 1004.3 |
| 20260505080320 | 72 | 175 | 0.0 | 7.0 | 0.00 | 0.00 | 0.00 | 83 | 1004.4 |
| 20260505075815 | 72 | 248 | 1.7 | 4.3 | 0.00 | 0.00 | 0.00 | 82 | 1004.6 |
| 20260505075313 | 73 | 324 | 1.7 | 4.3 | 0.00 | 0.00 | 0.00 | 82 | 1004.4 |
| 20260505074810 | 73 | 206 | 1.7 | 6.1 | 0.00 | 0.00 | 0.00 | 82 | 1004.5 |
| 20260505074307 | 73 | 15 | 1.7 | 3.5 | 0.00 | 0.00 | 0.00 | 81 | 1004.6 |
| 20260505073805 | 73 | 180 | 1.7 | 2.6 | 0.00 | 0.00 | 0.00 | 81 | 1004.9 |
| 20260505073303 | 73 | 180 | 0.0 | 2.6 | 0.00 | 0.00 | 0.00 | 81 | 1004.9 |
| 20260505072759 | 73 | 65 | 1.7 | 2.6 | 0.00 | 0.00 | 0.00 | 80 | 1005.1 |
| 20260505072255 | 73 | 339 | 0.0 | 4.3 | 0.00 | 0.00 | 0.00 | 80 | 1004.8 |
| 20260505071751 | 73 | 234 | 0.0 | 3.5 | 0.00 | 0.00 | 0.00 | 80 | 1005.1 |
| 20260505071248 | 73 | 173 | 0.0 | 1.7 | 0.00 | 0.00 | 0.00 | 79 | 1005.1 |
| 20260505070745 | 73 | 112 | 0.0 | 3.5 | 0.00 | 0.00 | 0.00 | 79 | 1005.4 |
| 20260505070242 | 73 | 71 | 1.7 | 4.3 | 0.00 | 0.00 | 0.00 | 79 | 1005.6 |
| 20260505065737 | 73 | 183 | 2.6 | 4.3 | 0.00 | 0.00 | 0.00 | 78 | 1005.5 |
| 20260505065235 | 73 | 254 | 3.5 | 4.3 | 0.00 | 0.00 | 0.00 | 78 | 1005.4 |
| 20260505064731 | 74 | 194 | 2.6 | 4.3 | 0.00 | 0.00 | 0.00 | 78 | 1005.8 |
| 20260505064229 | 74 | 192 | 1.7 | 2.6 | 0.00 | 0.00 | 0.00 | 77 | 1005.8 |
| 20260505063726 | 74 | 68 | 2.6 | 2.6 | 0.00 | 0.00 | 0.00 | 77 | 1005.6 |
| 20260505063222 | 74 | 253 | 0.0 | 5.2 | 0.00 | 0.00 | 0.00 | 77 | 1005.7 |
| 20260505062719 | 74 | 107 | 0.0 | 2.6 | 0.00 | 0.00 | 0.00 | 76 | 1005.6 |
| 20260505062217 | 74 | 330 | 0.0 | 2.6 | 0.00 | 0.00 | 0.00 | 76 | 1005.7 |
| 20260505061714 | 74 | 68 | 0.0 | 1.7 | 0.00 | 0.00 | 0.00 | 75 | 1005.8 |
| 20260505061212 | 74 | 90 | 0.9 | 2.6 | 0.00 | 0.00 | 0.00 | 75 | 1005.7 |
| 20260505060708 | 75 | 4 | 0.0 | 2.6 | 0.00 | 0.00 | 0.00 | 75 | 1005.8 |
| 20260505060206 | 75 | 75 | 2.6 | 3.5 | 0.00 | 0.00 | 0.00 | 75 | 1005.8 |
| 20260505055701 | 75 | 206 | 0.0 | 2.6 | 0.00 | 0.00 | 0.00 | 74 | 1005.7 |
| 20260505055157 | 75 | 251 | 0.0 | 2.6 | 0.00 | 0.00 | 0.00 | 74 | 1005.8 |
| 20260505054655 | 75 | 66 | 0.0 | 7.0 | 0.00 | 0.00 | 0.00 | 74 | 1005.6 |
| 20260505054153 | 75 | 180 | 0.0 | 3.5 | 0.00 | 0.00 | 0.00 | 74 | 1005.7 |
| 20260505053650 | 75 | 195 | 0.0 | 6.1 | 0.00 | 0.00 | 0.00 | 74 | 1005.6 |
| 20260505053146 | 75 | 32 | 1.7 | 3.5 | 0.00 | 0.00 | 0.00 | 74 | 1005.7 |
| 20260505052644 | 75 | 48 | 0.0 | 3.5 | 0.00 | 0.00 | 0.00 | 74 | 1005.7 |
| 20260505052141 | 75 | 295 | 1.7 | 5.2 | 0.00 | 0.00 | 0.00 | 74 | 1005.6 |
| 20260505051637 | 75 | 90 | 0.0 | 2.6 | 0.00 | 0.00 | 0.00 | 74 | 1005.7 |
| 20260505051136 | 75 | 270 | 0.0 | 2.6 | 0.00 | 0.00 | 0.00 | 74 | 1006.0 |
| 20260505050633 | 75 | 313 | 4.3 | 7.8 | 0.00 | 0.00 | 0.00 | 73 | 1005.9 |
| 20260505050132 | 75 | 218 | 0.0 | 7.0 | 0.00 | 0.00 | 0.00 | 74 | 1006.0 |
| 20260505041601 | 75 | 185 | 0.9 | 2.6 | 0.00 | 0.00 | 0.00 | 73 | 1006.0 |
| 20260505041058 | 75 | 104 | 2.6 | 7.8 | 0.00 | 0.00 | 0.00 | 72 | 1006.2 |
| 20260505040555 | 75 | 96 | 0.0 | 6.1 | 0.00 | 0.00 | 0.00 | 72 | 1006.0 |
| 20260505040053 | 75 | 217 | 0.0 | 3.5 | 0.00 | 0.00 | 0.00 | 73 | 1006.3 |
| 20260505035549 | 75 | 270 | 0.0 | 3.5 | 0.00 | 0.00 | 0.00 | 72 | 1006.1 |
| 20260505035046 | 75 | 258 | 1.7 | 3.5 | 0.00 | 0.00 | 0.00 | 72 | 1006.2 |
| 20260505034542 | 75 | 257 | 0.0 | 5.2 | 0.00 | 0.00 | 0.00 | 72 | 1006.1 |
| 20260505034039 | 75 | 90 | 0.0 | 2.6 | 0.00 | 0.00 | 0.00 | 73 | 1005.9 |
| 20260505033536 | 75 | 283 | 8.7 | 8.7 | 0.00 | 0.00 | 0.00 | 73 | 1005.9 |
| 20260505033034 | 75 | 94 | 2.6 | 3.5 | 0.00 | 0.00 | 0.00 | 72 | 1006.0 |
| 20260505032532 | 75 | 75 | 2.6 | 3.5 | 0.00 | 0.00 | 0.00 | 72 | 1005.8 |
| 20260505032028 | 75 | 15 | 0.0 | 2.6 | 0.00 | 0.00 | 0.00 | 72 | 1005.9 |
| 20260505031525 | 75 | 289 | 1.7 | 7.0 | 0.00 | 0.00 | 0.00 | 72 | 1006.0 |
| 20260505031021 | 75 | 180 | 0.0 | 2.6 | 0.00 | 0.00 | 0.00 | 72 | 1006.1 |
| 20260505030519 | 75 | 0 | 0.0 | 2.6 | 0.00 | 0.00 | 0.00 | 72 | 1006.0 |
| 20260505030015 | 75 | 275 | 1.7 | 2.6 | 0.00 | 0.00 | 0.00 | 72 | 1006.3 |
| 20260505025510 | 75 | 71 | 0.0 | 1.7 | 0.00 | 0.00 | 0.00 | 71 | 1006.0 |
| 20260505025010 | 76 | 90 | 0.9 | 3.5 | 0.00 | 0.00 | 0.00 | 71 | 1006.2 |
| 20260505024506 | 76 | 90 | 0.0 | 6.1 | 0.00 | 0.00 | 0.00 | 71 | 1006.1 |
| 20260505024003 | 76 | 63 | 1.7 | 3.5 | 0.00 | 0.00 | 0.00 | 71 | 1006.1 |
| 20260505023500 | 76 | 60 | 0.9 | 4.3 | 0.00 | 0.00 | 0.00 | 71 | 1005.9 |
| 20260505022958 | 76 | 192 | 0.9 | 1.7 | 0.00 | 0.00 | 0.00 | 70 | 1006.0 |
| 20260505022455 | 76 | 188 | 0.0 | 1.7 | 0.00 | 0.00 | 0.00 | 70 | 1006.1 |
| 20260505021952 | 76 | 195 | 0.0 | 2.6 | 0.00 | 0.00 | 0.00 | 70 | 1005.7 |
| 20260505021448 | 76 | 281 | 2.6 | 2.6 | 0.00 | 0.00 | 0.00 | 70 | 1005.9 |
| 20260505020944 | 76 | 90 | 0.0 | 2.6 | 0.00 | 0.00 | 0.00 | 70 | 1005.9 |
| 20260505020439 | 76 | 114 | 0.0 | 1.7 | 0.00 | 0.00 | 0.00 | 70 | 1005.8 |
| 20260505015937 | 76 | 35 | 0.9 | 2.6 | 0.00 | 0.00 | 0.00 | 70 | 1006.1 |
| 20260505015434 | 76 | 105 | 0.9 | 2.6 | 0.00 | 0.00 | 0.00 | 69 | 1006.0 |
| 20260505014931 | 76 | 180 | 0.0 | 2.6 | 0.00 | 0.00 | 0.00 | 69 | 1005.7 |
| 20260505014428 | 77 | 180 | 0.9 | 2.6 | 0.00 | 0.00 | 0.00 | 69 | 1006.0 |
| 20260505013925 | 77 | 186 | 0.9 | 2.6 | 0.00 | 0.00 | 0.00 | 69 | 1006.1 |
| 20260505013422 | 77 | 184 | 0.0 | 6.1 | 0.00 | 0.00 | 0.00 | 68 | 1005.8 |
| 20260505012920 | 77 | 257 | 0.9 | 2.6 | 0.00 | 0.00 | 0.00 | 68 | 1005.9 |
| 20260505012418 | 77 | 263 | 0.0 | 2.6 | 0.00 | 0.00 | 0.00 | 68 | 1005.6 |
| 20260505011914 | 77 | 245 | 0.0 | 3.5 | 0.00 | 0.00 | 0.00 | 68 | 1006.1 |
| 20260505011410 | 77 | 292 | 0.0 | 4.3 | 0.00 | 0.00 | 0.00 | 67 | 1005.8 |
| 20260505010907 | 77 | 263 | 3.5 | 4.3 | 0.00 | 0.00 | 0.00 | 67 | 1006.0 |
| 20260505010403 | 77 | 196 | 1.7 | 4.3 | 0.00 | 0.00 | 0.00 | 67 | 1006.3 |
| 20260505005859 | 78 | 157 | 1.7 | 4.3 | 0.00 | 0.00 | 0.00 | 66 | 1006.1 |
| 20260505005356 | 78 | 276 | 0.0 | 4.3 | 0.00 | 0.00 | 0.00 | 66 | 1006.1 |
| 20260505004854 | 78 | 85 | 0.0 | 3.5 | 0.00 | 0.00 | 0.00 | 66 | 1005.7 |
| 20260505004349 | 78 | 185 | 2.6 | 7.0 | 0.00 | 0.00 | 0.00 | 66 | 1005.9 |
| 20260505003847 | 78 | 169 | 1.7 | 6.1 | 0.00 | 0.00 | 0.00 | 66 | 1005.9 |
| 20260505003344 | 78 | 321 | 3.5 | 4.3 | 0.00 | 0.00 | 0.00 | 65 | 1005.7 |
| 20260505002840 | 78 | 318 | 2.6 | 4.3 | 0.00 | 0.00 | 0.00 | 65 | 1006.2 |
| 20260505002337 | 79 | 270 | 1.7 | 3.5 | 0.00 | 0.00 | 0.00 | 65 | 1005.8 |
| 20260505001835 | 79 | 121 | 1.7 | 7.0 | 0.00 | 0.00 | 0.00 | 64 | 1005.9 |
| 20260505001332 | 77 | 180 | 0.0 | 0.0 | 0.00 | 0.00 | 0.00 | 57 | 1006.1 |
| 20260505000829 | 77 | 180 | 0.0 | 0.0 | 0.00 | 0.00 | 0.00 | 58 | 1006.1 |
| 20260505000327 | 77 | 180 | 0.0 | 0.0 | 0.00 | 0.00 | 0.00 | 58 | 1006.4 |
| 20260504235823 | 77 | 180 | 0.0 | 0.0 | 0.00 | 0.00 | 0.00 | 58 | 1006.2 |
| 20260504235320 | 77 | 180 | 0.0 | 0.0 | 0.00 | 0.00 | 0.00 | 58 | 1006.1 |
| 20260504234817 | 77 | 180 | 0.0 | 0.0 | 0.00 | 0.00 | 0.00 | 58 | 1006.4 |
| 20260504234315 | 77 | 180 | 0.0 | 0.0 | 0.00 | 0.00 | 0.00 | 58 | 1006.2 |
| 20260504233811 | 77 | 180 | 0.0 | 0.0 | 0.00 | 0.00 | 0.00 | 58 | 1006.2 |
| 20260504233307 | 77 | 180 | 0.0 | 0.0 | 0.00 | 0.00 | 0.00 | 58 | 1006.5 |
| 20260504232804 | 77 | 180 | 0.0 | 0.0 | 0.00 | 0.00 | 0.00 | 58 | 1006.5 |
| 20260504232301 | 77 | 180 | 0.0 | 0.0 | 0.00 | 0.00 | 0.00 | 58 | 1006.5 |
| 20260504231758 | 77 | 180 | 0.0 | 0.0 | 0.00 | 0.00 | 0.00 | 58 | 1006.4 |
| 20260504231254 | 77 | 180 | 0.0 | 0.0 | 0.00 | 0.00 | 0.00 | 58 | 1006.1 |
| 20260504230750 | 77 | 180 | 0.0 | 0.0 | 0.00 | 0.00 | 0.00 | 58 | 1006.3 |
| 20260504230248 | 77 | 180 | 0.0 | 0.0 | 0.00 | 0.00 | 0.00 | 58 | 1006.2 |
| 20260504225747 | 77 | 180 | 0.0 | 0.0 | 0.00 | 0.00 | 0.00 | 58 | 1006.5 |
| 20260504225243 | 77 | 180 | 0.0 | 0.0 | 0.00 | 0.00 | 0.00 | 58 | 1006.7 |
| 20260504224740 | 77 | 180 | 0.0 | 0.0 | 0.00 | 0.00 | 0.00 | 58 | 1006.8 |
| 20260504224237 | 77 | 180 | 0.0 | 0.0 | 0.00 | 0.00 | 0.00 | 58 | 1006.5 |
| 20260504223733 | 77 | 180 | 0.0 | 0.0 | 0.00 | 0.00 | 0.00 | 58 | 1006.5 |
| 20260504223229 | 77 | 180 | 0.0 | 0.0 | 0.00 | 0.00 | 0.00 | 58 | 1006.5 |
| 20260504222727 | 77 | 180 | 0.0 | 0.0 | 0.00 | 0.00 | 0.00 | 58 | 1006.7 |
| 20260504222223 | 77 | 180 | 0.0 | 0.0 | 0.00 | 0.00 | 0.00 | 58 | 1006.5 |
| 20260504221721 | 77 | 180 | 0.0 | 0.0 | 0.00 | 0.00 | 0.00 | 58 | 1006.6 |
| 20260504221218 | 77 | 180 | 0.0 | 0.0 | 0.00 | 0.00 | 0.00 | 58 | 1006.6 |
| 20260504220714 | 77 | 180 | 0.0 | 0.0 | 0.00 | 0.00 | 0.00 | 58 | 1006.7 |
| 20260504220212 | 77 | 180 | 0.0 | 0.0 | 0.00 | 0.00 | 0.00 | 58 | 1006.5 |
| 20260504215708 | 77 | 180 | 0.0 | 0.0 | 0.00 | 0.00 | 0.00 | 58 | 1006.7 |
| 20260504215206 | 77 | 180 | 0.0 | 0.0 | 0.00 | 0.00 | 0.00 | 58 | 1007.1 |
| 20260504214701 | 77 | 180 | 0.0 | 0.0 | 0.00 | 0.00 | 0.00 | 58 | 1006.9 |
| 20260504214158 | 77 | 180 | 0.0 | 0.0 | 0.00 | 0.00 | 0.00 | 58 | 1007.2 |
| 20260504213654 | 77 | 180 | 0.0 | 0.0 | 0.00 | 0.00 | 0.00 | 58 | 1007.5 |
| 20260504213151 | 77 | 180 | 0.0 | 0.0 | 0.00 | 0.00 | 0.00 | 58 | 1007.3 |
| 20260504212647 | 77 | 180 | 0.0 | 0.0 | 0.00 | 0.00 | 0.00 | 58 | 1007.6 |
| 20260504212144 | 77 | 180 | 0.0 | 0.0 | 0.00 | 0.00 | 0.00 | 58 | 1007.6 |
| 20260504211642 | 77 | 180 | 0.0 | 0.0 | 0.00 | 0.00 | 0.00 | 58 | 1007.7 |
| 20260504211138 | 77 | 180 | 0.0 | 0.0 | 0.00 | 0.00 | 0.00 | 58 | 1007.6 |
| 20260504210636 | 77 | 180 | 0.0 | 0.0 | 0.00 | 0.00 | 0.00 | 58 | 1007.7 |
| 20260504210132 | 77 | 180 | 0.0 | 0.0 | 0.00 | 0.00 | 0.00 | 58 | 1007.9 |
| 20260504205630 | 77 | 180 | 0.0 | 0.0 | 0.00 | 0.00 | 0.00 | 58 | 1008.0 |
| 20260504205127 | 77 | 180 | 0.0 | 0.0 | 0.00 | 0.00 | 0.00 | 58 | 1008.2 |
| 20260504204625 | 77 | 180 | 0.0 | 0.0 | 0.00 | 0.00 | 0.00 | 58 | 1007.9 |
| 20260504204124 | 77 | 180 | 0.0 | 0.0 | 0.00 | 0.00 | 0.00 | 58 | 1008.3 |
| 20260504203622 | 77 | 180 | 0.0 | 0.0 | 0.00 | 0.00 | 0.00 | 58 | 1008.4 |
| 20260504203119 | 76 | 180 | 0.0 | 0.0 | 0.00 | 0.00 | 0.00 | 58 | 1008.4 |
| 20260504202614 | 76 | 180 | 0.0 | 0.0 | 0.00 | 0.00 | 0.00 | 58 | 1008.4 |
| 20260504202111 | 76 | 180 | 0.0 | 0.0 | 0.00 | 0.00 | 0.00 | 58 | 1008.6 |
| 20260504201608 | 76 | 180 | 0.0 | 0.0 | 0.00 | 0.00 | 0.00 | 58 | 1008.7 |
| 20260504201106 | 76 | 180 | 0.0 | 0.0 | 0.00 | 0.00 | 0.00 | 58 | 1009.0 |